owner,sensor,date,latitude,longitude,air_pressure(mBar),qcFlag 
WAVCIS,ioos:station:WAVCIS:CSI16:1,2009-10-01T00:00:00Z,29.4012,-89.0355,1013.16,11111222 
WAVCIS,ioos:station:WAVCIS:CSI16:1,2009-10-01T01:00:00Z,29.4012,-89.0355,1013.37,11111222 
WAVCIS,ioos:station:WAVCIS:CSI16:1,2009-10-01T02:00:00Z,29.4012,-89.0355,1013.74,11111222 
WAVCIS,ioos:station:WAVCIS:CSI16:1,2009-10-01T03:00:00Z,29.4012,-89.0355,1013.88,11111222 
WAVCIS,ioos:station:WAVCIS:CSI16:1,2009-10-01T04:00:00Z,29.4012,-89.0355,1013.65,11111222 
WAVCIS,ioos:station:WAVCIS:CSI16:1,2009-10-01T05:00:00Z,29.4012,-89.0355,1013.33,11111222 
WAVCIS,ioos:station:WAVCIS:CSI16:1,2009-10-01T06:00:00Z,29.4012,-89.0355,1013.05,11111222 
WAVCIS,ioos:station:WAVCIS:CSI16:1,2009-10-01T07:00:00Z,29.4012,-89.0355,1012.61,11111222 
WAVCIS,ioos:station:WAVCIS:CSI16:1,2009-10-01T08:00:00Z,29.4012,-89.0355,1012.19,11111222 
WAVCIS,ioos:station:WAVCIS:CSI16:1,2009-10-01T09:00:00Z,29.4012,-89.0355,1011.64,11111222 
WAVCIS,ioos:station:WAVCIS:CSI16:1,2009-10-01T10:00:00Z,29.4012,-89.0355,1011.78,11111222 
WAVCIS,ioos:station:WAVCIS:CSI16:1,2009-10-01T11:00:00Z,29.4012,-89.0355,1012.17,11111222 
WAVCIS,ioos:station:WAVCIS:CSI16:1,2009-10-01T12:00:00Z,29.4012,-89.0355,1012.6,11111222 
WAVCIS,ioos:station:WAVCIS:CSI16:1,2009-10-01T13:00:00Z,29.4012,-89.0355,1012.67,11111222 
WAVCIS,ioos:station:WAVCIS:CSI16:1,2009-10-01T14:00:00Z,29.4012,-89.0355,1013.58,11111222 
WAVCIS,ioos:station:WAVCIS:CSI16:1,2009-10-01T15:00:00Z,29.4012,-89.0355,1013.82,11111222 
WAVCIS,ioos:station:WAVCIS:CSI16:1,2009-10-01T16:00:00Z,29.4012,-89.0355,1013.81,11111222 
WAVCIS,ioos:station:WAVCIS:CSI16:1,2009-10-01T17:00:00Z,29.4012,-89.0355,1013.91,11111222 
WAVCIS,ioos:station:WAVCIS:CSI16:1,2009-10-01T18:00:00Z,29.4012,-89.0355,1013.33,11111222 
WAVCIS,ioos:station:WAVCIS:CSI16:1,2009-10-01T19:00:00Z,29.4012,-89.0355,1012.41,11111222 
WAVCIS,ioos:station:WAVCIS:CSI16:1,2009-10-01T20:00:00Z,29.4012,-89.0355,1011.78,11111222 
WAVCIS,ioos:station:WAVCIS:CSI16:1,2009-10-01T21:00:00Z,29.4012,-89.0355,1011.42,11111222 
WAVCIS,ioos:station:WAVCIS:CSI16:1,2009-10-01T22:00:00Z,29.4012,-89.0355,1011.23,11111222 
WAVCIS,ioos:station:WAVCIS:CSI16:1,2009-10-01T23:00:00Z,29.4012,-89.0355,1011.36,11111222 
WAVCIS,ioos:station:WAVCIS:CSI16:1,2009-10-02T00:00:00Z,29.4012,-89.0355,1011.42,11111222 
WAVCIS,ioos:station:WAVCIS:CSI16:1,2009-10-02T01:00:00Z,29.4012,-89.0355,1011.36,11111222 
WAVCIS,ioos:station:WAVCIS:CSI16:1,2009-10-02T02:00:00Z,29.4012,-89.0355,1011.31,11111222 
WAVCIS,ioos:station:WAVCIS:CSI16:1,2009-10-02T03:00:00Z,29.4012,-89.0355,1010.75,11111222 
WAVCIS,ioos:station:WAVCIS:CSI16:1,2009-10-02T04:00:00Z,29.4012,-89.0355,1010.03,11111222 
WAVCIS,ioos:station:WAVCIS:CSI16:1,2009-10-02T05:00:00Z,29.4012,-89.0355,1009.47,11111222 
WAVCIS,ioos:station:WAVCIS:CSI16:1,2009-10-02T06:00:00Z,29.4012,-89.0355,1009.95,11111222 
WAVCIS,ioos:station:WAVCIS:CSI16:1,2009-10-02T07:00:00Z,29.4012,-89.0355,1010.11,11111222 
WAVCIS,ioos:station:WAVCIS:CSI16:1,2009-10-02T08:00:00Z,29.4012,-89.0355,1009.51,11111222 
WAVCIS,ioos:station:WAVCIS:CSI16:1,2009-10-02T09:00:00Z,29.4012,-89.0355,1009.14,11111222 
WAVCIS,ioos:station:WAVCIS:CSI16:1,2009-10-02T10:00:00Z,29.4012,-89.0355,1008.97,11111222 
WAVCIS,ioos:station:WAVCIS:CSI16:1,2009-10-02T11:00:00Z,29.4012,-89.0355,1009.07,11111222 
WAVCIS,ioos:station:WAVCIS:CSI16:1,2009-10-02T12:00:00Z,29.4012,-89.0355,1010.03,11111222 
WAVCIS,ioos:station:WAVCIS:CSI16:1,2009-10-02T13:00:00Z,29.4012,-89.0355,1010.6,11111222 
WAVCIS,ioos:station:WAVCIS:CSI16:1,2009-10-02T14:00:00Z,29.4012,-89.0355,1010.4,11111222 
WAVCIS,ioos:station:WAVCIS:CSI16:1,2009-10-02T15:00:00Z,29.4012,-89.0355,1010.45,11111222 
WAVCIS,ioos:station:WAVCIS:CSI16:1,2009-10-02T16:00:00Z,29.4012,-89.0355,1009.12,11111222 
WAVCIS,ioos:station:WAVCIS:CSI16:1,2009-10-02T17:00:00Z,29.4012,-89.0355,1008.8,11111222 
WAVCIS,ioos:station:WAVCIS:CSI16:1,2009-10-02T18:00:00Z,29.4012,-89.0355,1008.39,11111222 
WAVCIS,ioos:station:WAVCIS:CSI16:1,2009-10-02T19:00:00Z,29.4012,-89.0355,1008.49,11111222 
WAVCIS,ioos:station:WAVCIS:CSI16:1,2009-10-02T20:00:00Z,29.4012,-89.0355,1008.35,11111222 
WAVCIS,ioos:station:WAVCIS:CSI16:1,2009-10-02T21:00:00Z,29.4012,-89.0355,1008.5,11111222 
WAVCIS,ioos:station:WAVCIS:CSI16:1,2009-10-02T22:00:00Z,29.4012,-89.0355,1008.58,11111222 
WAVCIS,ioos:station:WAVCIS:CSI16:1,2009-10-02T23:00:00Z,29.4012,-89.0355,1008.63,11111222 
WAVCIS,ioos:station:WAVCIS:CSI16:1,2009-10-03T00:00:00Z,29.4012,-89.0355,1008.31,11111222 
WAVCIS,ioos:station:WAVCIS:CSI16:1,2009-10-03T01:00:00Z,29.4012,-89.0355,1008.51,11111222 
WAVCIS,ioos:station:WAVCIS:CSI16:1,2009-10-03T02:00:00Z,29.4012,-89.0355,1009.08,11111222 
WAVCIS,ioos:station:WAVCIS:CSI16:1,2009-10-03T03:00:00Z,29.4012,-89.0355,1009.18,11111222 
WAVCIS,ioos:station:WAVCIS:CSI16:1,2009-10-03T04:00:00Z,29.4012,-89.0355,1009.33,11111222 
WAVCIS,ioos:station:WAVCIS:CSI16:1,2009-10-03T05:00:00Z,29.4012,-89.0355,1009.33,11111222 
WAVCIS,ioos:station:WAVCIS:CSI16:1,2009-10-03T06:00:00Z,29.4012,-89.0355,1009.11,11111222 
WAVCIS,ioos:station:WAVCIS:CSI16:1,2009-10-03T07:00:00Z,29.4012,-89.0355,1009.14,11111222 
WAVCIS,ioos:station:WAVCIS:CSI16:1,2009-10-03T08:00:00Z,29.4012,-89.0355,1009.14,11111222 
WAVCIS,ioos:station:WAVCIS:CSI16:1,2009-10-03T09:00:00Z,29.4012,-89.0355,1008.73,11111222 
WAVCIS,ioos:station:WAVCIS:CSI16:1,2009-10-03T10:00:00Z,29.4012,-89.0355,1008.88,11111222 
WAVCIS,ioos:station:WAVCIS:CSI16:1,2009-10-03T11:00:00Z,29.4012,-89.0355,1009.51,11111222 
WAVCIS,ioos:station:WAVCIS:CSI16:1,2009-10-03T12:00:00Z,29.4012,-89.0355,1010.32,11111222 
WAVCIS,ioos:station:WAVCIS:CSI16:1,2009-10-03T13:00:00Z,29.4012,-89.0355,1010.92,11111222 
WAVCIS,ioos:station:WAVCIS:CSI16:1,2009-10-03T14:00:00Z,29.4012,-89.0355,1011.74,11111222 
WAVCIS,ioos:station:WAVCIS:CSI16:1,2009-10-03T15:00:00Z,29.4012,-89.0355,1011.8,11111222 
WAVCIS,ioos:station:WAVCIS:CSI16:1,2009-10-03T16:00:00Z,29.4012,-89.0355,1011.67,11111222 
WAVCIS,ioos:station:WAVCIS:CSI16:1,2009-10-03T17:00:00Z,29.4012,-89.0355,1011.64,11111222 
WAVCIS,ioos:station:WAVCIS:CSI16:1,2009-10-03T18:00:00Z,29.4012,-89.0355,1011.04,11111222 
WAVCIS,ioos:station:WAVCIS:CSI16:1,2009-10-03T19:00:00Z,29.4012,-89.0355,1010.29,11111222 
WAVCIS,ioos:station:WAVCIS:CSI16:1,2009-10-03T20:00:00Z,29.4012,-89.0355,1009.71,11111222 
WAVCIS,ioos:station:WAVCIS:CSI16:1,2009-10-03T21:00:00Z,29.4012,-89.0355,1009.47,11111222 
WAVCIS,ioos:station:WAVCIS:CSI16:1,2009-10-03T22:00:00Z,29.4012,-89.0355,1009.54,11111222 
WAVCIS,ioos:station:WAVCIS:CSI16:1,2009-10-03T23:00:00Z,29.4012,-89.0355,1009.88,11111222 
WAVCIS,ioos:station:WAVCIS:CSI16:1,2009-10-04T00:00:00Z,29.4012,-89.0355,1009.99,11111222 
WAVCIS,ioos:station:WAVCIS:CSI16:1,2009-10-04T01:00:00Z,29.4012,-89.0355,1010.3,11111222 
WAVCIS,ioos:station:WAVCIS:CSI16:1,2009-10-04T02:00:00Z,29.4012,-89.0355,1010.73,11111222 
WAVCIS,ioos:station:WAVCIS:CSI16:1,2009-10-04T03:00:00Z,29.4012,-89.0355,1010.72,11111222 
WAVCIS,ioos:station:WAVCIS:CSI16:1,2009-10-04T04:00:00Z,29.4012,-89.0355,1010.81,11111222 
WAVCIS,ioos:station:WAVCIS:CSI16:1,2009-10-04T05:00:00Z,29.4012,-89.0355,1011.17,11111222 
WAVCIS,ioos:station:WAVCIS:CSI16:1,2009-10-04T06:00:00Z,29.4012,-89.0355,1010.69,11111222 
WAVCIS,ioos:station:WAVCIS:CSI16:1,2009-10-04T07:00:00Z,29.4012,-89.0355,1010.89,11111222 
WAVCIS,ioos:station:WAVCIS:CSI16:1,2009-10-04T08:00:00Z,29.4012,-89.0355,1010.49,11111222 
WAVCIS,ioos:station:WAVCIS:CSI16:1,2009-10-04T09:00:00Z,29.4012,-89.0355,1009.84,11111222 
WAVCIS,ioos:station:WAVCIS:CSI16:1,2009-10-04T10:00:00Z,29.4012,-89.0355,1009.6,11111222 
WAVCIS,ioos:station:WAVCIS:CSI16:1,2009-10-04T11:00:00Z,29.4012,-89.0355,1009.97,11111222 
WAVCIS,ioos:station:WAVCIS:CSI16:1,2009-10-04T12:00:00Z,29.4012,-89.0355,1009.95,11111222 
WAVCIS,ioos:station:WAVCIS:CSI16:1,2009-10-04T13:00:00Z,29.4012,-89.0355,1010.21,11111222 
WAVCIS,ioos:station:WAVCIS:CSI16:1,2009-10-04T14:00:00Z,29.4012,-89.0355,1010.63,11111222 
WAVCIS,ioos:station:WAVCIS:CSI16:1,2009-10-04T15:00:00Z,29.4012,-89.0355,1011.11,11111222 
WAVCIS,ioos:station:WAVCIS:CSI16:1,2009-10-04T16:00:00Z,29.4012,-89.0355,1010.85,11111222 
WAVCIS,ioos:station:WAVCIS:CSI16:1,2009-10-04T17:00:00Z,29.4012,-89.0355,1010.57,11111222 
WAVCIS,ioos:station:WAVCIS:CSI16:1,2009-10-04T18:00:00Z,29.4012,-89.0355,1010.33,11111222 
WAVCIS,ioos:station:WAVCIS:CSI16:1,2009-10-04T19:00:00Z,29.4012,-89.0355,1009.4,11111222 
WAVCIS,ioos:station:WAVCIS:CSI16:1,2009-10-04T20:00:00Z,29.4012,-89.0355,1008.77,11111222 
WAVCIS,ioos:station:WAVCIS:CSI16:1,2009-10-04T21:00:00Z,29.4012,-89.0355,1008.89,11111222 
WAVCIS,ioos:station:WAVCIS:CSI16:1,2009-10-04T22:00:00Z,29.4012,-89.0355,1008.63,11111222 
WAVCIS,ioos:station:WAVCIS:CSI16:1,2009-10-04T23:00:00Z,29.4012,-89.0355,1008.77,11111222 
WAVCIS,ioos:station:WAVCIS:CSI16:1,2009-10-05T00:00:00Z,29.4012,-89.0355,1008.59,11111222 
WAVCIS,ioos:station:WAVCIS:CSI16:1,2009-10-05T01:00:00Z,29.4012,-89.0355,1008.81,11111222 
WAVCIS,ioos:station:WAVCIS:CSI16:1,2009-10-05T02:00:00Z,29.4012,-89.0355,1009.09,11111222 
WAVCIS,ioos:station:WAVCIS:CSI16:1,2009-10-05T03:00:00Z,29.4012,-89.0355,1009.86,11111222 
WAVCIS,ioos:station:WAVCIS:CSI16:1,2009-10-05T04:00:00Z,29.4012,-89.0355,1010.15,11111222 
WAVCIS,ioos:station:WAVCIS:CSI16:1,2009-10-05T05:00:00Z,29.4012,-89.0355,1009.63,11111222 
WAVCIS,ioos:station:WAVCIS:CSI16:1,2009-10-05T06:00:00Z,29.4012,-89.0355,1009.24,11111222 
WAVCIS,ioos:station:WAVCIS:CSI16:1,2009-10-05T07:00:00Z,29.4012,-89.0355,1009.0,11111222 
WAVCIS,ioos:station:WAVCIS:CSI16:1,2009-10-05T08:00:00Z,29.4012,-89.0355,1008.79,11111222 
WAVCIS,ioos:station:WAVCIS:CSI16:1,2009-10-05T09:00:00Z,29.4012,-89.0355,1008.24,11111222 
WAVCIS,ioos:station:WAVCIS:CSI16:1,2009-10-05T10:00:00Z,29.4012,-89.0355,1008.66,11111222 
WAVCIS,ioos:station:WAVCIS:CSI16:1,2009-10-05T11:00:00Z,29.4012,-89.0355,1008.93,11111222 
WAVCIS,ioos:station:WAVCIS:CSI16:1,2009-10-05T12:00:00Z,29.4012,-89.0355,1009.9,11111222 
WAVCIS,ioos:station:WAVCIS:CSI16:1,2009-10-05T13:00:00Z,29.4012,-89.0355,1010.44,11111222 
WAVCIS,ioos:station:WAVCIS:CSI16:1,2009-10-05T14:00:00Z,29.4012,-89.0355,1010.51,11111222 
WAVCIS,ioos:station:WAVCIS:CSI16:1,2009-10-05T15:00:00Z,29.4012,-89.0355,1010.68,11111222 
WAVCIS,ioos:station:WAVCIS:CSI16:1,2009-10-05T16:00:00Z,29.4012,-89.0355,1011.01,11111222 
WAVCIS,ioos:station:WAVCIS:CSI16:1,2009-10-05T17:00:00Z,29.4012,-89.0355,1011.52,11111222 
WAVCIS,ioos:station:WAVCIS:CSI16:1,2009-10-05T18:00:00Z,29.4012,-89.0355,1011.02,11111222 
WAVCIS,ioos:station:WAVCIS:CSI16:1,2009-10-05T19:00:00Z,29.4012,-89.0355,1009.98,11111222 
WAVCIS,ioos:station:WAVCIS:CSI16:1,2009-10-05T20:00:00Z,29.4012,-89.0355,1009.72,11111222 
WAVCIS,ioos:station:WAVCIS:CSI16:1,2009-10-05T21:00:00Z,29.4012,-89.0355,1009.56,11111222 
WAVCIS,ioos:station:WAVCIS:CSI16:1,2009-10-05T22:00:00Z,29.4012,-89.0355,1010.07,11111222 
WAVCIS,ioos:station:WAVCIS:CSI16:1,2009-10-05T23:00:00Z,29.4012,-89.0355,1010.04,11111222 
WAVCIS,ioos:station:WAVCIS:CSI16:1,2009-10-06T00:00:00Z,29.4012,-89.0355,1009.86,11111222 
WAVCIS,ioos:station:WAVCIS:CSI16:1,2009-10-06T01:00:00Z,29.4012,-89.0355,1010.48,11111222 
WAVCIS,ioos:station:WAVCIS:CSI16:1,2009-10-06T02:00:00Z,29.4012,-89.0355,1011.06,11111222 
WAVCIS,ioos:station:WAVCIS:CSI16:1,2009-10-06T03:00:00Z,29.4012,-89.0355,1011.37,11111222 
WAVCIS,ioos:station:WAVCIS:CSI16:1,2009-10-06T04:00:00Z,29.4012,-89.0355,1011.21,11111222 
WAVCIS,ioos:station:WAVCIS:CSI16:1,2009-10-06T05:00:00Z,29.4012,-89.0355,1010.96,11111222 
WAVCIS,ioos:station:WAVCIS:CSI16:1,2009-10-06T06:00:00Z,29.4012,-89.0355,1010.52,11111222 
WAVCIS,ioos:station:WAVCIS:CSI16:1,2009-10-06T07:00:00Z,29.4012,-89.0355,1010.33,11111222 
WAVCIS,ioos:station:WAVCIS:CSI16:1,2009-10-06T08:00:00Z,29.4012,-89.0355,1009.97,11111222 
WAVCIS,ioos:station:WAVCIS:CSI16:1,2009-10-06T09:00:00Z,29.4012,-89.0355,1009.96,11111222 
WAVCIS,ioos:station:WAVCIS:CSI16:1,2009-10-06T10:00:00Z,29.4012,-89.0355,1010.26,11111222 
WAVCIS,ioos:station:WAVCIS:CSI16:1,2009-10-06T11:00:00Z,29.4012,-89.0355,1010.82,11111222 
WAVCIS,ioos:station:WAVCIS:CSI16:1,2009-10-06T12:00:00Z,29.4012,-89.0355,1011.33,11111222 
WAVCIS,ioos:station:WAVCIS:CSI16:1,2009-10-08T18:00:00Z,29.4012,-89.0355,1015.64,11111222 
WAVCIS,ioos:station:WAVCIS:CSI16:1,2009-10-08T19:00:00Z,29.4012,-89.0355,1014.95,11111222 
WAVCIS,ioos:station:WAVCIS:CSI16:1,2009-10-08T20:00:00Z,29.4012,-89.0355,1014.33,11111222 
WAVCIS,ioos:station:WAVCIS:CSI16:1,2009-10-08T21:00:00Z,29.4012,-89.0355,1014.17,11111222 
WAVCIS,ioos:station:WAVCIS:CSI16:1,2009-10-08T22:00:00Z,29.4012,-89.0355,1014.22,11111222 
WAVCIS,ioos:station:WAVCIS:CSI16:1,2009-10-08T23:00:00Z,29.4012,-89.0355,1014.24,11111222 
WAVCIS,ioos:station:WAVCIS:CSI16:1,2009-10-09T00:00:00Z,29.4012,-89.0355,1014.16,11111222 
WAVCIS,ioos:station:WAVCIS:CSI16:1,2009-10-09T01:00:00Z,29.4012,-89.0355,1014.32,11111222 
WAVCIS,ioos:station:WAVCIS:CSI16:1,2009-10-09T02:00:00Z,29.4012,-89.0355,1014.37,11111222 
WAVCIS,ioos:station:WAVCIS:CSI16:1,2009-10-09T03:00:00Z,29.4012,-89.0355,1014.33,11111222 
WAVCIS,ioos:station:WAVCIS:CSI16:1,2009-10-09T04:00:00Z,29.4012,-89.0355,1014.1,11111222 
WAVCIS,ioos:station:WAVCIS:CSI16:1,2009-10-09T05:00:00Z,29.4012,-89.0355,1013.68,11111222 
WAVCIS,ioos:station:WAVCIS:CSI16:1,2009-10-09T06:00:00Z,29.4012,-89.0355,1013.04,11111222 
WAVCIS,ioos:station:WAVCIS:CSI16:1,2009-10-09T07:00:00Z,29.4012,-89.0355,1013.0,11111222 
WAVCIS,ioos:station:WAVCIS:CSI16:1,2009-10-09T08:00:00Z,29.4012,-89.0355,1012.6,11111222 
WAVCIS,ioos:station:WAVCIS:CSI16:1,2009-10-09T09:00:00Z,29.4012,-89.0355,1012.29,11111222 
WAVCIS,ioos:station:WAVCIS:CSI16:1,2009-10-09T10:00:00Z,29.4012,-89.0355,1012.3,11111222 
WAVCIS,ioos:station:WAVCIS:CSI16:1,2009-10-09T11:00:00Z,29.4012,-89.0355,1012.07,11111222 
WAVCIS,ioos:station:WAVCIS:CSI16:1,2009-10-09T12:00:00Z,29.4012,-89.0355,1012.39,11111222 
WAVCIS,ioos:station:WAVCIS:CSI16:1,2009-10-09T13:00:00Z,29.4012,-89.0355,1012.79,11111222 
WAVCIS,ioos:station:WAVCIS:CSI16:1,2009-10-09T14:00:00Z,29.4012,-89.0355,1013.46,11111222 
WAVCIS,ioos:station:WAVCIS:CSI16:1,2009-10-09T15:00:00Z,29.4012,-89.0355,1013.58,11111222 
WAVCIS,ioos:station:WAVCIS:CSI16:1,2009-10-09T16:00:00Z,29.4012,-89.0355,1013.36,11111222 
WAVCIS,ioos:station:WAVCIS:CSI16:1,2009-10-09T17:00:00Z,29.4012,-89.0355,1012.89,11111222 
WAVCIS,ioos:station:WAVCIS:CSI16:1,2009-10-09T18:00:00Z,29.4012,-89.0355,1011.88,11111222 
WAVCIS,ioos:station:WAVCIS:CSI16:1,2009-10-09T19:00:00Z,29.4012,-89.0355,1011.06,11111222 
WAVCIS,ioos:station:WAVCIS:CSI16:1,2009-10-09T20:00:00Z,29.4012,-89.0355,1010.65,11111222 
WAVCIS,ioos:station:WAVCIS:CSI16:1,2009-10-09T21:00:00Z,29.4012,-89.0355,1010.54,11111222 
WAVCIS,ioos:station:WAVCIS:CSI16:1,2009-10-09T22:00:00Z,29.4012,-89.0355,1010.78,11111222 
WAVCIS,ioos:station:WAVCIS:CSI16:1,2009-10-09T23:00:00Z,29.4012,-89.0355,1010.59,11111222 
WAVCIS,ioos:station:WAVCIS:CSI16:1,2009-10-10T00:00:00Z,29.4012,-89.0355,1010.74,11111222 
WAVCIS,ioos:station:WAVCIS:CSI16:1,2009-10-10T01:00:00Z,29.4012,-89.0355,1011.64,11111222 
WAVCIS,ioos:station:WAVCIS:CSI16:1,2009-10-10T02:00:00Z,29.4012,-89.0355,1012.17,11111222 
WAVCIS,ioos:station:WAVCIS:CSI16:1,2009-10-10T03:00:00Z,29.4012,-89.0355,1012.32,11111222 
WAVCIS,ioos:station:WAVCIS:CSI16:1,2009-10-10T04:00:00Z,29.4012,-89.0355,1012.38,11111222 
WAVCIS,ioos:station:WAVCIS:CSI16:1,2009-10-10T05:00:00Z,29.4012,-89.0355,1012.11,11111222 
WAVCIS,ioos:station:WAVCIS:CSI16:1,2009-10-10T06:00:00Z,29.4012,-89.0355,1012.22,11111222 
WAVCIS,ioos:station:WAVCIS:CSI16:1,2009-10-10T07:00:00Z,29.4012,-89.0355,1011.93,11111222 
WAVCIS,ioos:station:WAVCIS:CSI16:1,2009-10-10T08:00:00Z,29.4012,-89.0355,1011.89,11111222 
WAVCIS,ioos:station:WAVCIS:CSI16:1,2009-10-10T09:00:00Z,29.4012,-89.0355,1011.83,11111222 
WAVCIS,ioos:station:WAVCIS:CSI16:1,2009-10-10T10:00:00Z,29.4012,-89.0355,1011.67,11111222 
WAVCIS,ioos:station:WAVCIS:CSI16:1,2009-10-10T11:00:00Z,29.4012,-89.0355,1012.46,11111222 
WAVCIS,ioos:station:WAVCIS:CSI16:1,2009-10-10T12:00:00Z,29.4012,-89.0355,1012.97,11111222 
WAVCIS,ioos:station:WAVCIS:CSI16:1,2009-10-10T13:00:00Z,29.4012,-89.0355,1013.52,11111222 
WAVCIS,ioos:station:WAVCIS:CSI16:1,2009-10-10T14:00:00Z,29.4012,-89.0355,1014.56,11111222 
WAVCIS,ioos:station:WAVCIS:CSI16:1,2009-10-10T15:00:00Z,29.4012,-89.0355,1015.42,11111222 
WAVCIS,ioos:station:WAVCIS:CSI16:1,2009-10-10T16:00:00Z,29.4012,-89.0355,1015.44,11111222 
WAVCIS,ioos:station:WAVCIS:CSI16:1,2009-10-10T17:00:00Z,29.4012,-89.0355,1014.91,11111222 
WAVCIS,ioos:station:WAVCIS:CSI16:1,2009-10-10T18:00:00Z,29.4012,-89.0355,1014.39,11111222 
WAVCIS,ioos:station:WAVCIS:CSI16:1,2009-10-10T19:00:00Z,29.4012,-89.0355,1014.09,11111222 
WAVCIS,ioos:station:WAVCIS:CSI16:1,2009-10-10T20:00:00Z,29.4012,-89.0355,1013.75,11111222 
WAVCIS,ioos:station:WAVCIS:CSI16:1,2009-10-10T21:00:00Z,29.4012,-89.0355,1013.71,11111222 
WAVCIS,ioos:station:WAVCIS:CSI16:1,2009-10-10T22:00:00Z,29.4012,-89.0355,1013.93,11111222 
WAVCIS,ioos:station:WAVCIS:CSI16:1,2009-10-10T23:00:00Z,29.4012,-89.0355,1013.87,11111222 
WAVCIS,ioos:station:WAVCIS:CSI16:1,2009-10-11T00:00:00Z,29.4012,-89.0355,1013.43,11111222 
WAVCIS,ioos:station:WAVCIS:CSI16:1,2009-10-11T01:00:00Z,29.4012,-89.0355,1013.66,11111222 
WAVCIS,ioos:station:WAVCIS:CSI16:1,2009-10-11T02:00:00Z,29.4012,-89.0355,1014.15,11111222 
WAVCIS,ioos:station:WAVCIS:CSI16:1,2009-10-11T03:00:00Z,29.4012,-89.0355,1014.92,11111222 
WAVCIS,ioos:station:WAVCIS:CSI16:1,2009-10-11T04:00:00Z,29.4012,-89.0355,1015.34,11111222 
WAVCIS,ioos:station:WAVCIS:CSI16:1,2009-10-11T05:00:00Z,29.4012,-89.0355,1014.75,11111222 
WAVCIS,ioos:station:WAVCIS:CSI16:1,2009-10-11T06:00:00Z,29.4012,-89.0355,1013.98,11111222 
WAVCIS,ioos:station:WAVCIS:CSI16:1,2009-10-11T07:00:00Z,29.4012,-89.0355,1013.93,11111222 
WAVCIS,ioos:station:WAVCIS:CSI16:1,2009-10-11T08:00:00Z,29.4012,-89.0355,1013.7,11111222 
WAVCIS,ioos:station:WAVCIS:CSI16:1,2009-10-11T09:00:00Z,29.4012,-89.0355,1013.5,11111222 
WAVCIS,ioos:station:WAVCIS:CSI16:1,2009-10-11T10:00:00Z,29.4012,-89.0355,1013.97,11111222 
WAVCIS,ioos:station:WAVCIS:CSI16:1,2009-10-11T11:00:00Z,29.4012,-89.0355,1014.51,11111222 
WAVCIS,ioos:station:WAVCIS:CSI16:1,2009-10-11T12:00:00Z,29.4012,-89.0355,1014.8,11111222 
WAVCIS,ioos:station:WAVCIS:CSI16:1,2009-10-11T13:00:00Z,29.4012,-89.0355,1015.19,11111222 
WAVCIS,ioos:station:WAVCIS:CSI16:1,2009-10-11T14:00:00Z,29.4012,-89.0355,1015.64,11111222 
WAVCIS,ioos:station:WAVCIS:CSI16:1,2009-10-11T15:00:00Z,29.4012,-89.0355,1016.19,11111222 
WAVCIS,ioos:station:WAVCIS:CSI16:1,2009-10-11T16:00:00Z,29.4012,-89.0355,1016.41,11111222 
WAVCIS,ioos:station:WAVCIS:CSI16:1,2009-10-11T17:00:00Z,29.4012,-89.0355,1016.33,11111222 
WAVCIS,ioos:station:WAVCIS:CSI16:1,2009-10-11T18:00:00Z,29.4012,-89.0355,1016.06,11111222 
WAVCIS,ioos:station:WAVCIS:CSI16:1,2009-10-11T19:00:00Z,29.4012,-89.0355,1015.38,11111222 
WAVCIS,ioos:station:WAVCIS:CSI16:1,2009-10-11T20:00:00Z,29.4012,-89.0355,1014.66,11111222 
WAVCIS,ioos:station:WAVCIS:CSI16:1,2009-10-11T21:00:00Z,29.4012,-89.0355,1014.24,11111222 
WAVCIS,ioos:station:WAVCIS:CSI16:1,2009-10-11T22:00:00Z,29.4012,-89.0355,1014.69,11111222 
WAVCIS,ioos:station:WAVCIS:CSI16:1,2009-10-11T23:00:00Z,29.4012,-89.0355,1013.87,11111222 
WAVCIS,ioos:station:WAVCIS:CSI16:1,2009-10-12T00:00:00Z,29.4012,-89.0355,1013.85,11111222 
WAVCIS,ioos:station:WAVCIS:CSI16:1,2009-10-12T01:00:00Z,29.4012,-89.0355,1013.93,11111222 
WAVCIS,ioos:station:WAVCIS:CSI16:1,2009-10-12T02:00:00Z,29.4012,-89.0355,1014.36,11111222 
WAVCIS,ioos:station:WAVCIS:CSI16:1,2009-10-12T03:00:00Z,29.4012,-89.0355,1014.75,11111222 
WAVCIS,ioos:station:WAVCIS:CSI16:1,2009-10-12T04:00:00Z,29.4012,-89.0355,1015.05,11111222 
WAVCIS,ioos:station:WAVCIS:CSI16:1,2009-10-12T05:00:00Z,29.4012,-89.0355,1014.59,11111222 
WAVCIS,ioos:station:WAVCIS:CSI16:1,2009-10-12T06:00:00Z,29.4012,-89.0355,1014.35,11111222 
WAVCIS,ioos:station:WAVCIS:CSI16:1,2009-10-12T07:00:00Z,29.4012,-89.0355,1014.6,11111222 
WAVCIS,ioos:station:WAVCIS:CSI16:1,2009-10-12T08:00:00Z,29.4012,-89.0355,1014.44,11111222 
WAVCIS,ioos:station:WAVCIS:CSI16:1,2009-10-12T09:00:00Z,29.4012,-89.0355,1014.15,11111222 
WAVCIS,ioos:station:WAVCIS:CSI16:1,2009-10-12T10:00:00Z,29.4012,-89.0355,1013.88,11111222 
WAVCIS,ioos:station:WAVCIS:CSI16:1,2009-10-12T11:00:00Z,29.4012,-89.0355,1014.36,11111222 
WAVCIS,ioos:station:WAVCIS:CSI16:1,2009-10-12T12:00:00Z,29.4012,-89.0355,1014.82,11111222 
WAVCIS,ioos:station:WAVCIS:CSI16:1,2009-10-12T13:00:00Z,29.4012,-89.0355,1014.86,11111222 
WAVCIS,ioos:station:WAVCIS:CSI16:1,2009-10-12T14:00:00Z,29.4012,-89.0355,1015.44,11111222 
WAVCIS,ioos:station:WAVCIS:CSI16:1,2009-10-12T15:00:00Z,29.4012,-89.0355,1016.2,11111222 
WAVCIS,ioos:station:WAVCIS:CSI16:1,2009-10-12T16:00:00Z,29.4012,-89.0355,1016.28,11111222 
WAVCIS,ioos:station:WAVCIS:CSI16:1,2009-10-12T17:00:00Z,29.4012,-89.0355,1015.95,11111222 
WAVCIS,ioos:station:WAVCIS:CSI16:1,2009-10-12T18:00:00Z,29.4012,-89.0355,1015.69,11111222 
WAVCIS,ioos:station:WAVCIS:CSI16:1,2009-10-12T19:00:00Z,29.4012,-89.0355,1014.39,11111222 
WAVCIS,ioos:station:WAVCIS:CSI16:1,2009-10-12T20:00:00Z,29.4012,-89.0355,1013.58,11111222 
WAVCIS,ioos:station:WAVCIS:CSI16:1,2009-10-12T21:00:00Z,29.4012,-89.0355,1013.14,11111222 
WAVCIS,ioos:station:WAVCIS:CSI16:1,2009-10-12T22:00:00Z,29.4012,-89.0355,1013.6,11111222 
WAVCIS,ioos:station:WAVCIS:CSI16:1,2009-10-12T23:00:00Z,29.4012,-89.0355,1013.96,11111222 
WAVCIS,ioos:station:WAVCIS:CSI16:1,2009-10-13T00:00:00Z,29.4012,-89.0355,1014.28,11111222 
WAVCIS,ioos:station:WAVCIS:CSI16:1,2009-10-13T01:00:00Z,29.4012,-89.0355,1015.15,11111222 
WAVCIS,ioos:station:WAVCIS:CSI16:1,2009-10-13T02:00:00Z,29.4012,-89.0355,1016.01,11111222 
WAVCIS,ioos:station:WAVCIS:CSI16:1,2009-10-13T03:00:00Z,29.4012,-89.0355,1016.32,11111222 
WAVCIS,ioos:station:WAVCIS:CSI16:1,2009-10-13T04:00:00Z,29.4012,-89.0355,1015.92,11111222 
WAVCIS,ioos:station:WAVCIS:CSI16:1,2009-10-13T05:00:00Z,29.4012,-89.0355,1015.03,11111222 
WAVCIS,ioos:station:WAVCIS:CSI16:1,2009-10-13T06:00:00Z,29.4012,-89.0355,1014.64,11111222 
WAVCIS,ioos:station:WAVCIS:CSI16:1,2009-10-13T07:00:00Z,29.4012,-89.0355,1014.72,11111222 
WAVCIS,ioos:station:WAVCIS:CSI16:1,2009-10-13T08:00:00Z,29.4012,-89.0355,1014.82,11111222 
WAVCIS,ioos:station:WAVCIS:CSI16:1,2009-10-13T09:00:00Z,29.4012,-89.0355,1014.71,11111222 
WAVCIS,ioos:station:WAVCIS:CSI16:1,2009-10-13T10:00:00Z,29.4012,-89.0355,1014.72,11111222 
WAVCIS,ioos:station:WAVCIS:CSI16:1,2009-10-13T11:00:00Z,29.4012,-89.0355,1015.17,11111222 
WAVCIS,ioos:station:WAVCIS:CSI16:1,2009-10-13T12:00:00Z,29.4012,-89.0355,1015.62,11111222 
WAVCIS,ioos:station:WAVCIS:CSI16:1,2009-10-14T14:00:00Z,29.4012,-89.0355,1013.17,11111222 
WAVCIS,ioos:station:WAVCIS:CSI16:1,2009-10-14T15:00:00Z,29.4012,-89.0355,1013.22,11111222 
WAVCIS,ioos:station:WAVCIS:CSI16:1,2009-10-14T16:00:00Z,29.4012,-89.0355,1013.24,11111222 
WAVCIS,ioos:station:WAVCIS:CSI16:1,2009-10-14T17:00:00Z,29.4012,-89.0355,1011.93,11111222 
WAVCIS,ioos:station:WAVCIS:CSI16:1,2009-10-14T18:00:00Z,29.4012,-89.0355,1011.41,11111222 
WAVCIS,ioos:station:WAVCIS:CSI16:1,2009-10-14T19:00:00Z,29.4012,-89.0355,1011.04,11111222 
WAVCIS,ioos:station:WAVCIS:CSI16:1,2009-10-14T20:00:00Z,29.4012,-89.0355,1010.33,11111222 
WAVCIS,ioos:station:WAVCIS:CSI16:1,2009-10-14T21:00:00Z,29.4012,-89.0355,1010.2,11111222 
WAVCIS,ioos:station:WAVCIS:CSI16:1,2009-10-14T22:00:00Z,29.4012,-89.0355,1009.86,11111222 
WAVCIS,ioos:station:WAVCIS:CSI16:1,2009-10-14T23:00:00Z,29.4012,-89.0355,1009.76,11111222 
WAVCIS,ioos:station:WAVCIS:CSI16:1,2009-10-15T00:00:00Z,29.4012,-89.0355,1010.04,11111222 
WAVCIS,ioos:station:WAVCIS:CSI16:1,2009-10-15T01:00:00Z,29.4012,-89.0355,1009.84,11111222 
WAVCIS,ioos:station:WAVCIS:CSI16:1,2009-10-15T02:00:00Z,29.4012,-89.0355,1009.82,11111222 
WAVCIS,ioos:station:WAVCIS:CSI16:1,2009-10-19T14:00:00Z,29.4012,-89.0355,1020.49,11111222 
WAVCIS,ioos:station:WAVCIS:CSI16:1,2009-10-19T15:00:00Z,29.4012,-89.0355,1021.15,11111222 